Probability
0 0 0 0 0 0 0 0 0 0 0 0 0 0 0 0 0 0 0 0 0 0 0 0 0 0 0 0 0 0 0 0 0 0 0 0 0 0
0 0 0 0 0 0 0 0 0 0 0 0 0 0 0 0 0 0 0 0 0 0 0 0 0 0 0 0 0 0 0 0 0 0 0 0 0 0
0 0 0 0 0 0 0 0 0 0 0 0 0 0 0 0 0 0 0 0 0 0 0 0 0 0 0 0 0 0 0 0 0 0 0 0 0 0
0 0 0 0 0 0 0 0 0 0 0 0 0 0 0 0 0 0 0 0 0 0 0 0 0 0 0 0 0 0 0 0 0 0 0 0 0 0
0 0 0 0 0 0 0 0 0 0 0 0 0 0 0 0 0 0 0 0 0 0 0 0 0 0 0 0 0 0 0 0 0 0 0 0 0 0
0 0 0 0 0 0 0 0 0 0 0 0 0 0 0 0 0 0 0 0 0 0 0 0 0 0 0 0 0 0 0 0 0 0 0 0 0 0
0 0 0 0 0 0 0 0 0 0 0 0 0 0 0 0 0 0 0 0 0 0 0 0 0 0 0 0 0 0 0 0 0 0 0 0 0 0
0 0 0 0 0 0 0 0 0 0 0 0 0 0 0 0 0 0 0 0 0 0 0 0 0 0 0 0 0 0 0 0 0 0 0 0 0 0
0 0 0 0 0 0 0 0 0 0 0 0 0 0 0 0 0 0 0 0 0 0 0 0 0 0 0 0 0 0 0 0 0 0 0 0 0 0
0 0 0 0 0 0 0 0 0 0 0 0 0 0 0 0 0 0 0 0 0 0 0 0 0 0 0 0 0 0 0 0 0 0 0 0 0 0
0 0 0 0 0 0 0 0 0 0 0 0 0 0 0 0 0 0 0 0 0 0 0 0 0 0 0 0 0 0 0 0 0 0 0 0 0 0
0 0 0 0 0 0 0 0 0 0 0 0 0 0 0 0 0 0 0 0 0 0 0 0 0 0 0 0 0 0 0 0 0 0 0 0 0 0
0 0 0 0 0 0 0 0 0 0 0 0 0 0 0 0 0 0 0 0 0 0 0 0 0 0 0 0 0 0 0 0 0 0 0 0 0 0
0 0 0 0 0 0 0 0 0 0 0 0 0 0 0 0 0 0 0 0 0 0 0 0 0 0 0 0 0 0 0 0 0 0 0 0 0 0
0 0 0 0 0 0 0 0 0 0 0 0 0 0 0 0 0 0 0 0 0 0 0 0 0 0 0 0 0 0 0 0 0 0 0 0 1 1
0 0 0 0 0 0 0 0 0 0 0 0 0 0 0 0 0 0 0 0 0 0 0 0 0 0 0 0 0 0 0 0 0 0 0 1 2 2
0 0 0 0 0 0 0 0 0 0 0 0 0 0 0 0 0 0 0 0 0 0 0 0 0 0 0 0 0 0 0 0 0 0 0 1 2 2
0 0 0 0 0 0 0 0 0 0 0 0 0 0 0 0 0 0 0 0 0 0 0 0 0 0 0 0 0 0 0 0 0 0 0 0 1 1
0 0 0 0 0 0 0 0 0 0 0 0 0 0 0 0 0 0 0 0 0 0 0 0 0 0 0 0 0 0 0 0 1 1 0 0 0 0
0 0 0 0 0 0 0 0 0 0 0 0 0 0 0 0 0 0 0 0 0 0 0 0 0 0 0 0 0 0 0 1 2 2 1 0 0 0
0 0 0 0 0 0 0 0 0 0 0 0 0 0 0 0 0 0 0 0 0 0 0 0 0 0 0 0 0 0 0 0 1 2 1 1 0 0
0 0 0 0 0 0 0 0 0 0 0 0 0 0 0 0 0 0 0 0 0 0 0 0 0 0 0 0 0 0 0 0 0 1 1 1 1 1
0 0 0 0 0 0 0 0 0 0 0 0 0 0 0 0 0 0 0 0 0 0 0 0 0 0 0 0 0 0 0 0 0 0 0 0 1 0
Wind_Speed
3 3 2 1 1 1 2 2 3 2 2 2 2 2 1 2 3 3 4 5 6 7 7 7 7 7 7 7 7 7 7 7 7 7 8 9 10 10
3 3 2 1 1 1 2 2 2 3 2 2 2 2 2 2 3 4 5 7 8 9 9 9 9 9 10 9 9 9 9 9 9 9 9 9 9 10
4 4 4 3 2 2 2 2 2 2 3 2 2 2 3 3 3 3 4 5 5 9 10 11 11 11 11 11 11 11 11 11 10 10 10 10 10 10
6 6 6 4 4 3 3 4 3 4 4 4 2 2 4 3 3 4 4 4 5 8 11 11 12 12 12 12 12 12 12 12 12 12 11 11 11 11
7 7 7 6 6 4 5 5 4 4 4 4 4 2 3 3 3 4 4 4 5 7 9 11 12 12 13 12 13 13 13 13 13 13 13 13 12 12
7 8 7 8 8 7 6 6 5 5 4 4 5 4 4 3 3 4 5 4 4 5 6 7 9 11 12 12 13 13 13 14 14 14 14 14 14 13
7 7 7 9 10 8 6 6 6 5 5 5 5 4 4 4 4 3 5 5 5 5 5 5 5 6 7 9 11 13 14 14 15 15 15 15 15 15
6 6 5 6 7 8 9 8 8 7 7 5 5 6 7 5 4 4 4 5 6 3 3 5 4 7 7 7 10 13 14 14 15 15 16 16 16 16
4 3 3 2 3 3 5 6 7 8 8 6 7 8 7 6 5 6 6 7 8 5 4 8 6 8 8 8 13 15 15 16 16 16 16 16 16 16
3 3 3 1 1 2 3 4 4 5 6 6 7 8 8 6 6 7 7 8 8 6 5 8 8 8 9 8 12 16 17 17 17 17 17 17 16 17
1 1 1 1 2 2 2 4 5 5 5 6 7 8 10 10 7 5 5 6 8 7 5 6 7 8 8 9 10 14 17 17 17 17 17 17 17 15
1 1 2 2 3 3 2 3 5 6 5 5 5 6 7 8 7 7 6 7 7 6 5 5 6 5 7 6 7 7 9 12 16 16 17 17 16 11
2 2 2 4 4 4 2 2 5 6 5 5 5 5 5 4 5 5 6 6 8 8 5 4 6 6 8 8 7 8 8 9 9 10 13 16 16 13
2 2 2 5 5 5 3 3 5 4 2 3 3 4 5 5 5 6 6 7 8 11 9 8 7 8 10 12 10 8 8 9 9 10 9 11 13 16
2 4 5 5 4 3 4 5 4 2 2 3 4 4 5 6 6 6 7 7 8 9 9 9 10 9 10 12 12 11 11 10 9 10 10 10 10 9
3 4 5 5 4 3 4 4 3 3 3 3 4 5 5 5 6 6 6 7 7 8 7 9 9 11 10 12 11 12 11 10 9 10 10 10 10 10
3 3 3 4 4 4 4 4 4 4 4 4 5 5 6 6 6 6 6 6 7 8 9 7 8 8 11 11 11 12 12 12 11 10 10 12 11 11
3 3 4 4 4 4 5 5 5 5 5 5 6 6 6 7 7 7 6 7 8 9 9 9 8 8 8 9 11 13 11 11 11 11 11 12 13 11
4 4 4 4 5 5 5 5 5 6 5 5 6 6 7 7 7 7 7 8 9 9 10 9 8 9 11 13 10 10 11 11 10 11 11 11 13 12
4 4 4 4 5 5 5 5 6 6 6 6 6 7 7 7 8 8 8 10 10 11 11 9 9 9 10 12 12 11 12 13 11 12 11 11 11 12
5 4 4 5 5 6 6 6 6 7 7 7 7 8 7 7 8 9 9 11 11 10 11 11 10 13 11 9 11 11 11 12 14 11 11 10 11 10
5 5 5 6 6 6 6 6 7 7 7 7 7 7 7 8 9 11 10 10 10 10 12 11 11 10 9 11 13 13 13 12 11 15 16 14 10 9
5 6 5 6 6 6 6 7 8 7 7 7 7 8 8 9 9 9 11 11 11 11 11 11 10 9 9 10 11 12 15 13 9 9 9 12 17 19
Wind_Direction
178 177 175 186 177 172 160 156 152 177 259 284 288 295 267 245 240 235 242 252 258 258 257 257 259 262 263 264 264 263 263 263 263 263 263 261 259 258
184 184 190 191 184 174 170 171 166 167 214 255 265 289 293 275 239 235 246 259 263 265 262 258 257 257 257 258 257 257 256 256 256 258 260 260 259 259
197 198 208 189 189 189 179 175 181 173 206 255 252 269 268 269 274 254 251 251 259 261 261 258 255 254 254 254 254 253 252 251 251 251 254 256 256 257
210 206 218 205 205 200 193 200 201 199 205 238 248 248 252 259 264 268 263 254 254 259 257 256 254 253 252 251 250 249 248 248 248 248 248 249 251 252
211 211 218 208 219 215 211 214 215 209 207 226 250 243 255 255 263 265 264 263 262 260 258 255 253 253 252 251 250 247 245 243 243 244 245 246 247 248
219 218 218 213 220 220 221 223 221 218 214 228 249 255 254 249 242 261 273 260 264 268 261 258 255 255 254 252 250 247 245 243 242 241 242 242 243 245
226 226 227 224 224 221 223 224 219 224 226 236 251 259 258 248 249 247 267 281 273 250 259 256 253 257 258 255 252 248 246 245 243 242 240 240 241 242
229 233 234 236 237 233 234 229 216 221 230 235 247 253 262 259 261 257 265 277 282 240 242 269 252 260 259 254 250 248 249 247 245 243 240 239 238 239
216 222 233 234 224 240 245 243 236 234 229 233 249 255 262 257 256 262 256 256 263 265 260 277 267 265 262 256 248 247 248 249 247 245 243 241 239 238
204 202 210 242 281 262 260 262 261 255 246 239 246 257 262 265 253 259 266 267 266 262 239 265 271 268 270 262 250 246 247 248 247 246 244 242 240 239
106 125 181 261 326 304 269 276 284 283 268 256 258 266 272 273 268 266 262 262 272 270 225 243 265 273 272 267 259 247 245 247 247 247 246 244 242 240
56 45 40 6 345 345 285 282 288 292 303 304 292 287 281 278 267 246 251 259 267 271 236 230 261 272 276 260 260 262 256 252 248 248 247 245 241 239
41 25 17 13 358 347 330 278 277 291 297 295 295 296 296 289 281 263 248 248 259 261 260 249 267 266 265 275 272 267 263 265 262 255 247 243 239 228
27 7 359 6 4 359 356 329 318 317 311 312 311 308 308 305 300 292 278 266 257 263 270 263 265 268 272 275 276 270 264 262 261 262 259 250 241 231
21 15 13 13 9 6 1 354 351 357 343 323 309 303 301 299 301 299 294 285 276 268 267 264 265 269 266 270 275 274 275 270 259 258 258 254 252 242
12 11 17 20 22 10 359 1 3 348 329 310 302 300 302 304 305 304 300 303 297 291 281 273 268 269 270 270 270 272 270 268 264 260 260 259 254 245
4 18 19 12 10 5 358 353 350 348 338 324 312 309 307 305 303 304 296 296 288 291 296 293 283 274 268 269 270 267 267 266 265 265 261 262 257 248
44 28 13 6 359 351 345 340 337 337 332 323 315 310 307 305 303 301 295 291 290 291 291 293 295 294 286 268 245 262 267 268 269 265 260 260 262 256
36 18 4 353 346 341 335 329 324 322 318 313 310 307 304 301 300 299 298 295 292 291 290 289 286 283 285 286 276 240 261 272 272 268 260 256 261 262
15 2 350 342 335 329 324 320 317 316 313 310 307 304 302 302 301 299 297 296 295 295 294 289 281 276 276 281 286 282 255 260 268 269 268 264 262 264
356 347 340 333 327 322 317 314 311 308 308 307 304 304 304 303 299 297 295 294 291 290 290 289 286 284 281 277 275 276 274 252 250 261 269 267 266 262
341 335 331 328 324 319 317 314 312 309 310 307 306 305 304 300 297 297 296 294 291 287 288 288 291 289 281 277 280 284 286 283 264 252 250 249 255 259
335 331 327 326 324 320 319 317 314 311 310 309 308 306 304 301 298 293 291 289 289 290 292 293 292 287 282 280 282 282 284 286 285 280 268 252 245 251